Regional Weather Roundup
Issued by NWS

Home | Current Version | Previous Version | Graphics & Text | Print | Product List | Glossary On
Versions: 1 2 3 4 5 6 7 8 9 10 11 12 13 14 15 16 17 18 19 20 21 22 23 24 25 26 27 28 29 30 31 32 33 34 35 36 37 38 39 40 41 42 43 44 45 46 47 48 49 50
000
ASUS45 KCYS 211610
RWRWY

WYOMING REGIONAL WEATHER ROUNDUP
NATIONAL WEATHER SERVICE CHEYENNE WY
1000 AM MDT FRI JUL 21 2017

NOTE:  "FAIR" INDICATES FEW OR NO CLOUDS BELOW 12,000 FEET
WITH NO SIGNIFICANT WEATHER AND/OR OBSTRUCTIONS TO VISIBILITY.

WYZ001-211700-
YELLOWSTONE NATIONAL PARK

CITY           SKY/WX    TMP DP  RH WIND       PRES   REMARKS
LK YELLOWSTONE   N/A     60  43  53 VRB5      30.35S
W YELLOWSTONE  NOT AVBL

$$
WYZ002>013-054>058-071-098>099-211700-
NORTHERN WYOMING

CITY           SKY/WX    TMP DP  RH WIND       PRES   REMARKS
JACKSON        SUNNY     57  52  82 CALM      30.27S
CODY           FAIR      72  41  32 NE8       30.15F
GREYBULL       FAIR      76  58  53 VRB3      30.05S
WORLAND        FAIR      73  53  49 CALM      30.07F
SHERIDAN       FAIR      81  39  22 N17       30.06R
BUFFALO        FAIR      76  38  25 N16       30.11R
GILLETTE       FAIR      79  40  24 NW20      30.03S
HULETT         PTSUNNY   73  50  43 W8        30.03S
NEWCASTLE      FAIR      77  52  41 NW18G24   30.01F

$$
WYZ014>020-022>026-101>103-211700-
CENTRAL WYOMING

CITY           SKY/WX    TMP DP  RH WIND       PRES   REMARKS
BIG PINEY      FAIR      63  57  81 CALM      30.30S
PINEDALE       FAIR      64  54  68 CALM      30.31F
DUBOIS         FAIR      66  41  39 SE3       30.27S
LANDER         FAIR      66  58  75 NW6       30.15F
RIVERTON       FAIR      69  52  54 NW7       30.15F
CASPER         FAIR      78  51  38 SW10      30.14R
DOUGLAS        FAIR      80  54  40 NW16G31   30.10R

$$
WYZ021-027>030-104>119-211700-
SOUTHERN WYOMING

CITY           SKY/WX    TMP DP  RH WIND       PRES   REMARKS
EVANSTON       FAIR      72  53  51 VRB3      30.30S
KEMMERER         N/A     70  48  46 SE3       30.32S
FORT BRIDGER   FAIR      69  54  58 N5        30.32F
ROCK SPRINGS   FAIR      68  54  60 CALM      30.28S
RAWLINS        FAIR      70  51  51 SW7       30.28F
SARATOGA       FAIR      73  50  43 S7        30.30F
LARAMIE        FAIR      70  46  42 NE5       30.29R
CHEYENNE       FAIR      80  47  31 NW9       30.18R
TORRINGTON     FAIR      81  58  45 CALM      30.02R
PINE BLUFFS    FAIR      84  46  26 N14       30.11S

$$



USA.gov is the U.S. government's official web portal to all federal, state and local government web resources and services.